sat.trackr.live / text

‹ back to catalog

UNKNOWN

NORAD 81605

UNKNOWN UNKNOWN UNKNOWN

§ Identity

Operator
Country
Launch date
Launch site
Launch vehicle
Mass (kg)
RCS (m²)

External: N2YO · Heavens-Above

§ Orbital elements

Epoch: 2026-05-23T22:20:55.688640Z

Period
112.37 min
Inclination
56.4345°
Eccentricity
0.0146915
Mean motion
12.81478827 rev/d
Perigee alt
1,222.2 km
Apogee alt
1,448.9 km
Semi-major
7,713.7 km
B*
5.2875e-3
RAAN
114.1169°
Arg perigee
0.5911°
Mean anomaly
359.5164°
Rev number
20,699

§ Raw data

UNKNOWN1 81605U          26143.93120010  .00001183  00000+0  52875-2 0  99932 81605  56.4345 114.1169 0146915   0.5911 359.5164 12.81478827206991

JSON: /api/v1/satellites/81605 · /tle

For live sub-satellite position, see the globe view (requires WebGL).

§ Visibility from observer

Set your observer location to see the next 7 days of passes ≥ 10°. The values pass through the URL so the page stays shareable.

No JS? Fill the form by hand. The geolocation button needs JavaScript.